STARLINK-1699 (46548 NORAD) Tracking and Keplerian Element Data

This shows tracking and keplerian element data for the satellite.

Feedback or suggestion? Click here.




ElementValue
Catalog46548
NameSTARLINK-1699
Epoch Orbit459
Epoch Day304.50002315
Epoch Year2020
RAAN323.9643
Inclination53.0015
Eccentricity0.0001349
Argument of Perigee63.3544
Mean Anonmoly19.4627
Mean Motion15.62738324
Decay Rate9.763E-05
L11 46548U 20070S 20304.50002315 .00009763 00000-0 11239-3 0 9995
L22 46548 53.0015 323.9643 0001349 63.3544 19.4627 15.62738324 4593

Live tracking and technical data element details for STARLINK-1699 (NORAD 46548). STARLINK-1699 can be tracked NOW for your location showing map with azimuth and elevation plus other details from your city location.

Track the satellite on the map from your city or location and see movement details for azimuth, elevation, latitude, longitude, range, height, and movement on the map or in text.







IsCatalogInMostPopularTable: catalog: 46548, numindb: 3
Update: records affected: 1



GetName: 46548 STARLINK-1699

Hit Count: updated at: Sat, 31 Oct 2020 07:05:41 GMT